#timestamp,LO_Frequency,Hit,StdDev 
1580421795.2,286047005.2,P
1580421815.1,286047005.1,P
1580421816.0,286047005.1,P
1580421835.8,286047005.1,Y
1580421855.6,286047000.2,P
1580421875.5,286047000.4,N
1580421895.3,286047000.2,N
1580421915.2,286046999.9,N
1580421935.9,286047000.0,N
1580421955.7,286047001.1,N
1580421975.6,286046998.6,N
1580421995.4,286046998.6,N
1580422015.2,286047000.8,N
1580422035.1,286047000.9,N
1580422036.0,286047000.9,N
1580422055.8,286046998.2,N
1580422075.7,286047001.1,N
1580422095.5,286047000.8,N
1580422115.3,286047000.8,N
1580422135.2,286047000.2,N
1580422155.0,286047004.3,N
1580422155.9,286047004.3,N
1580422175.7,286047003.6,N
1580422195.6,286047005.4,N
1580422215.4,286047004.9,N
1580422235.3,286047007.6,Y
1580422255.1,286047005.5,P
1580422275.8,286047005.9,N
1580422295.7,286047003.4,N
1580422315.5,286047003.6,N
1580422335.4,286047003.2,N
1580422355.2,286047005.9,Y
1580422375.0,286047000.5,P
1580422375.9,286047000.5,N
1580422395.8,286047000.7,N
1580422415.6,286047000.8,N
1580422435.5,286047000.8,N
1580422455.3,286046998.8,N
1580422475.1,286046999.0,N
1580422495.9,286046999.3,N
1580422515.7,286046998.6,N
1580422535.5,286046998.4,N
1580422555.4,286046998.6,N
1580422575.2,286047001.1,N
1580422595.1,286046999.7,N
1580422596.0,286046999.7,N
1580422615.8,286047002.7,N
1580422635.6,286047000.6,N
1580422655.5,286047000.9,N
1580422675.3,286047002.6,N
1580422725.2,286047002.3,E
1580422735.1,286046999.7,N
1580422755.8,286046998.1,P
1580422775.7,286046998.2,N
1580422795.5,286046998.7,N
1580422815.4,286047001.1,N
1580422835.2,286047001.2,N
1580422855.0,286046999.4,N
1580422855.9,286046999.4,N
1580422875.8,286046998.3,N
1580422895.6,286047000.9,N
1580422915.4,286047000.1,N
1580422935.3,286047002.8,N
1580422955.1,286047002.7,N
1580422975.9,286046999.9,N
1580422995.7,286047000.1,N
1580423015.5,286047002.8,N
1580423035.4,286047001.6,N
1580423055.2,286047001.4,N
1580423075.0,286047004.2,N
1580423075.9,286047004.2,N
1580423095.8,286047003.9,N
1580423115.6,286047003.5,N
1580423135.5,286047003.1,N
1580423155.3,286047003.8,N
1580423175.1,286047003.4,N
1580423195.9,286047002.9,N
1580423215.7,286047003.4,N
1580423235.5,286047005.5,N
1580423255.4,286047004.7,N
1580423275.2,286047005.0,N
1580423295.1,286047004.8,N
1580423296.0,286047004.8,N
1580423315.8,286047004.9,N
1580423335.6,286047007.1,Y
1580423355.5,286047003.9,P
1580423375.3,286047003.3,P
1580423395.2,286047005.5,P
1580423415.9,286047004.7,Y
1580423435.7,286047001.4,P
1580423455.6,286047003.1,N
1580423475.4,286047003.6,P
1580423495.2,286047003.9,Y
1580423515.1,286046998.2,P
1580423516.0,286046998.2,N
1580423535.8,286046999.9,N
1580423555.7,286046999.8,N
1580423575.5,286047000.9,N
1580423595.3,286047001.9,N
1580423615.2,286047004.1,N
1580423635.0,286047001.6,N
1580423635.9,286047001.6,N
1580423655.8,286047001.7,N
1580423675.6,286047001.6,N
1580423695.4,286047004.3,N
1580423715.3,286047001.7,N
1580423735.1,286047002.8,N
1580423755.9,286046999.7,N
1580423805.7,286046998.2,E
1580423815.6,286046998.3,N
1580423835.5,286047000.4,P
1580423855.3,286047001.2,N
1580423875.2,286046998.5,N
1580423895.9,286046998.6,N
1580423915.7,286046998.8,N
1580423935.6,286046998.6,N
1580423955.4,286046998.5,N
1580423975.3,286046998.8,N
1580423995.1,286046998.2,N
1580423996.0,286046998.2,N
1580424015.8,286047000.0,N
1580424035.7,286047001.9,N
1580424055.5,286047004.0,Y
1580424075.4,286047003.2,P
1580424095.2,286047011.9,P
1580424115.0,286047004.0,N
1580424115.9,286047004.0,N
1580424135.8,286047005.8,N
1580424155.6,286047005.9,N
1580424175.4,286047005.3,N
1580424195.3,286047002.9,N
1580424215.1,286047003.2,N
1580424235.9,286047003.9,N
1580424255.7,286047001.3,N
1580424275.5,286047001.8,N
1580424295.4,286046999.9,N
1580424315.2,286047002.3,N
1580424335.1,286047000.3,N
1580424336.0,286047000.3,N
1580424355.8,286046998.5,N
1580424375.6,286046998.3,N
1580424395.5,286047000.7,N
1580424415.3,286047000.5,N
1580424435.1,286046998.2,N
1580424455.9,286046999.3,N
1580424475.7,286046998.8,N
1580424495.6,286046998.4,N
1580424515.4,286046996.7,N
1580424535.2,286046999.6,N
1580424555.1,286046999.1,N
1580424556